EW9733 Weather Reports


time (UTC)temp
C
wind
direction
speed
KPH
gust
KPH
rain 1hr
cm
rain 24hr
cm
rain mn
cm
humidity
%
barometer
mb
20260901051600 18 128 0.0 1.6 0.00 0.03 0.00 86 1016.9
20260901050057 18 127 0.0 4.8 0.00 0.03 0.00 85 1017.0
20260901044555 18 115 0.0 1.6 0.00 0.03 0.00 85 1016.9
20260901043117 18 114 0.0 1.6 0.00 0.03 0.00 84 1016.9
20260901041605 18 116 0.0 1.6 0.00 0.03 0.00 84 1017.1
20260901040101 18 142 0.0 1.6 0.00 0.03 0.00 84 1017.1
20260901034602 18 142 0.0 3.2 0.00 0.23 0.03 84 1017.0
20260901033102 18 141 0.0 3.2 0.00 0.23 0.03 84 1017.0
20260901031550 18 144 0.0 6.4 0.00 0.23 0.03 84 1017.1
20260901030049 18 161 0.0 6.4 0.00 0.23 0.03 84 1017.1
20260901024554 18 130 0.0 6.4 0.00 0.23 0.03 83 1017.0
20260901023047 18 161 0.0 1.6 0.00 0.23 0.03 83 1017.1
20260901021547 19 51 0.0 3.2 0.00 0.23 0.03 83 1017.2
20260901020047 19 155 0.0 8.0 0.00 0.23 0.03 84 1017.2
20260901014546 19 140 0.0 4.8 0.00 0.23 0.03 84 1017.3
20260901013046 19 151 0.0 8.0 0.00 0.23 0.03 84 1017.3
20260901011554 19 163 0.0 4.8 0.00 0.23 0.03 83 1017.2
20260901010046 20 135 1.6 6.4 0.00 0.23 0.03 82 1017.2
20260901004544 20 149 0.0 8.0 0.00 0.23 0.03 81 1017.2
20260901003053 20 146 0.0 6.4 0.00 0.23 0.03 80 1017.1
20260901001544 20 122 0.0 4.8 0.00 0.23 0.03 79 1017.1
20260901000044 20 160 1.6 11.3 0.00 0.23 0.03 77 1017.1
20260831234542 20 167 0.0 11.3 0.00 0.23 0.03 75 1017.1
20260831233041 20 165 0.0 6.4 0.00 0.23 0.03 75 1017.2
20260831231541 20 178 0.0 9.7 0.00 0.23 0.03 74 1017.2
20260831230041 20 173 3.2 9.7 0.00 0.23 0.03 73 1017.2
20260831224540 21 171 0.0 6.4 0.00 0.23 0.03 72 1017.2
20260831223042 21 90 0.0 11.3 0.00 0.23 0.03 71 1017.3
20260831221542 21 156 0.0 8.0 0.00 0.23 0.03 71 1017.3
20260831220038 21 162 3.2 8.0 0.00 0.23 0.03 70 1017.3
20260831214543 21 173 1.6 6.4 0.00 0.23 0.03 70 1017.5
20260831213043 21 185 1.6 8.0 0.00 0.23 0.03 70 1017.4
20260831211537 22 159 3.2 11.3 0.00 0.23 0.03 68 1017.4
20260831210038 22 165 0.0 8.0 0.00 0.23 0.03 68 1017.5
20260831204549 22 157 0.0 8.0 0.00 0.23 0.03 65 1017.6
20260831203054 23 165 3.2 6.4 0.00 0.23 0.03 64 1017.5
20260831201535 22 182 1.6 8.0 0.00 0.23 0.03 65 1017.5
20260831200040 22 170 3.2 9.7 0.00 0.23 0.03 66 1017.5
20260831194541 22 171 1.6 9.7 0.00 0.23 0.03 66 1017.6
20260831193035 22 319 0.0 12.9 0.00 0.23 0.03 65 1017.9
20260831191535 22 138 1.6 9.7 0.00 0.23 0.03 63 1017.7
20260831190050 22 176 1.6 8.0 0.00 0.23 0.03 63 1018.0
20260831184533 23 173 4.8 11.3 0.00 0.23 0.03 63 1018.3
20260831183034 23 89 0.0 6.4 0.00 0.23 0.03 60 1018.2
20260831181539 23 167 3.2 8.0 0.00 0.23 0.03 61 1018.2
20260831180034 23 96 0.0 9.7 0.00 0.23 0.03 58 1018.2
20260831174529 23 167 1.6 8.0 0.00 0.23 0.03 60 1018.5
20260831173028 22 186 3.2 9.7 0.00 0.23 0.03 61 1018.5
20260831171530 23 83 0.0 8.0 0.00 0.23 0.03 62 1018.6
20260831170035 23 86 1.6 9.7 0.00 0.23 0.03 60 1018.8
20260831164528 23 240 0.0 3.2 0.00 0.23 0.03 60 1018.8
20260831163026 22 302 1.6 8.0 0.00 0.23 0.03 60 1019.1
20260831161523 23 34 1.6 16.1 0.00 0.23 0.03 62 1019.2
20260831160038 22 106 0.0 9.7 0.00 0.23 0.03 60 1019.3
20260831154521 22 52 0.0 11.3 0.00 0.23 0.03 59 1019.4
20260831153043 22 34 1.6 12.9 0.00 0.23 0.03 59 1019.5
20260831151519 22 32 1.6 9.7 0.00 0.23 0.03 61 1019.5
20260831150016 22 71 1.6 8.0 0.00 0.23 0.03 60 1019.4
20260831144511 22 52 1.6 8.0 0.00 0.23 0.03 62 1019.4
20260831143007 21 45 0.0 8.0 0.00 0.23 0.03 66 1019.4
20260831141509 21 40 0.0 6.4 0.00 0.23 0.03 68 1019.3
20260831140059 21 84 1.6 4.8 0.00 0.23 0.03 70 1019.3
20260831134604 20 93 0.0 9.7 0.00 0.23 0.03 71 1019.4
20260831133051 20 124 0.0 4.8 0.00 0.23 0.03 78 1019.3
20260831131551 18 38 1.6 6.4 0.00 0.23 0.03 85 1019.2
20260831130050 18 53 0.0 4.8 0.00 0.23 0.03 92 1019.2
20260831124538 17 48 1.6 3.2 0.00 0.23 0.03 93 1019.1
20260831123043 17 51 0.0 12.9 0.00 0.23 0.03 93 1019.1
20260831121537 16 83 0.0 6.4 0.00 0.23 0.03 94 1018.8
20260831120055 16 190 0.0 0.0 0.00 0.23 0.03 93 1018.9
20260831114532 16 193 0.0 1.6 0.00 0.23 0.03 93 1018.8
20260831113026 15 193 0.0 1.6 0.00 0.23 0.03 93 1018.6
20260831111525 15 193 0.0 0.0 0.03 0.23 0.03 92 1018.7
20260831110022 15 193 0.0 0.0 0.03 0.23 0.03 92 1018.4
20260831104531 15 193 0.0 0.0 0.03 0.23 0.03 92 1018.3
20260831103016 15 193 0.0 0.0 0.03 0.23 0.03 91 1018.2
20260831101536 15 193 0.0 0.0 0.00 0.20 0.00 91 1017.8
20260831100037 16 193 0.0 0.0 0.00 0.20 0.00 91 1017.7
20260831094530 16 193 0.0 0.0 0.00 0.20 0.00 91 1017.6
20260831093029 16 193 0.0 0.0 0.00 0.20 0.00 91 1017.5
20260831091528 16 193 0.0 0.0 0.00 0.20 0.00 91 1017.5
20260831090027 16 193 0.0 0.0 0.00 0.20 0.00 90 1017.4
20260831084527 16 193 0.0 0.0 0.00 0.20 0.00 90 1017.3
20260831083025 17 193 0.0 0.0 0.00 0.20 0.00 90 1017.1
20260831081533 17 193 0.0 0.0 0.00 0.20 0.00 90 1017.0
20260831080016 17 193 0.0 0.0 0.00 0.20 0.00 90 1016.8
20260831074517 17 193 0.0 0.0 0.00 0.20 0.00 90 1016.6
20260831073011 17 193 0.0 1.6 0.00 0.20 0.00 90 1016.3
20260831071510 18 194 0.0 0.0 0.00 0.20 0.00 90 1016.3
20260831070012 18 194 0.0 0.0 0.00 0.20 0.00 90 1016.2
20260831064505 18 194 0.0 0.0 0.00 0.20 0.00 90 1016.2
20260831063004 18 194 0.0 0.0 0.00 0.20 0.00 90 1016.2
20260831061502 19 194 0.0 0.0 0.00 0.20 0.00 90 1016.2
20260831060109 19 194 0.0 0.0 0.00 0.20 0.00 90 1016.1
20260831054559 19 194 0.0 0.0 0.00 0.20 0.00 89 1016.0
20260831053054 20 194 0.0 0.0 0.00 0.20 0.00 89 1015.7